| time (UTC) | temp F | wind direction | speed MPH | gust MPH | rain 1hr in | rain 24hr in | rain mn in | humidity % | barometer mb |
| 20260502211013 | 60 | 157 | 0.0 | 0.0 | 0.00 | 0.00 | 0.00 | 33 | 1032.8 |
| 20260502210012 | 60 | 225 | 0.0 | 0.0 | 0.00 | 0.00 | 0.00 | 32 | 1032.7 |
| 20260502205012 | 61 | 90 | 0.0 | 1.0 | 0.00 | 0.00 | 0.00 | 32 | 1032.6 |
| 20260502203112 | 62 | 180 | 0.0 | 0.0 | 0.00 | 0.00 | 0.00 | 33 | 1032.5 |
| 20260502202112 | 61 | 169 | 0.0 | 3.0 | 0.00 | 0.00 | 0.00 | 34 | 1032.6 |
| 20260502201112 | 61 | 90 | 0.0 | 2.0 | 0.00 | 0.00 | 0.00 | 34 | 1032.9 |
| 20260502201012 | 61 | 90 | 0.0 | 1.0 | 0.00 | 0.00 | 0.00 | 33 | 1032.9 |
| 20260502200012 | 60 | 158 | 0.0 | 0.0 | 0.00 | 0.00 | 0.00 | 35 | 1033.1 |
| 20260502195913 | 60 | 180 | 0.0 | 2.0 | 0.00 | 0.00 | 0.00 | 36 | 1033.1 |
| 20260502194911 | 60 | 135 | 0.0 | 0.0 | 0.00 | 0.00 | 0.00 | 34 | 1033.2 |
| 20260502193911 | 61 | 90 | 0.0 | 1.0 | 0.00 | 0.00 | 0.00 | 35 | 1033.3 |
| 20260502192911 | 60 | 90 | 1.0 | 3.0 | 0.00 | 0.00 | 0.00 | 35 | 1033.4 |
| 20260502191914 | 61 | 65 | 2.0 | 4.0 | 0.00 | 0.00 | 0.00 | 34 | 1033.6 |
| 20260502190912 | 62 | 90 | 1.0 | 3.0 | 0.00 | 0.00 | 0.00 | 32 | 1033.8 |
| 20260502184912 | 62 | 96 | 1.0 | 3.0 | 0.00 | 0.00 | 0.00 | 36 | 1034.2 |
| 20260502183913 | 63 | 96 | 0.0 | 3.0 | 0.00 | 0.00 | 0.00 | 32 | 1034.1 |
| 20260502183815 | 63 | 92 | 2.0 | 3.0 | 0.00 | 0.00 | 0.00 | 33 | 1034.2 |
| 20260502182913 | 62 | 136 | 0.0 | 0.0 | 0.00 | 0.00 | 0.00 | 33 | 1034.3 |
| 20260502180913 | 61 | 67 | 1.0 | 2.0 | 0.00 | 0.00 | 0.00 | 35 | 1034.3 |
| 20260502163913 | 59 | 93 | 1.0 | 3.0 | 0.00 | 0.00 | 0.00 | 40 | 1035.0 |
| 20260502162911 | 58 | 90 | 0.0 | 0.0 | 0.00 | 0.00 | 0.00 | 44 | 1035.1 |
| 20260502160912 | 57 | 45 | 0.0 | 2.0 | 0.00 | 0.00 | 0.00 | 44 | 1035.5 |
| 20260502152013 | 57 | 115 | 0.0 | 1.0 | 0.00 | 0.00 | 0.00 | 52 | 1035.4 |
| 20260502130513 | 53 | 180 | 0.0 | 1.0 | 0.00 | 0.01 | 0.00 | 69 | 1035.4 |
| 20260502123512 | 52 | 202 | 0.0 | 1.0 | 0.00 | 0.01 | 0.00 | 74 | 1035.2 |
| 20260502123413 | 52 | 187 | 0.0 | 1.0 | 0.00 | 0.01 | 0.00 | 74 | 1035.2 |
| 20260502122512 | 52 | 179 | 0.0 | 1.0 | 0.00 | 0.01 | 0.00 | 76 | 1035.1 |
| 20260502121513 | 51 | 135 | 0.0 | 0.0 | 0.00 | 0.01 | 0.00 | 76 | 1035.1 |
| 20260502120514 | 51 | 135 | 0.0 | 1.0 | 0.00 | 0.01 | 0.00 | 77 | 1034.9 |
| 20260502115513 | 51 | 194 | 0.0 | 4.0 | 0.00 | 0.01 | 0.00 | 77 | 1034.8 |
| 20260502114612 | 51 | 135 | 0.0 | 2.0 | 0.00 | 0.01 | 0.00 | 79 | 1034.9 |
| 20260502113512 | 50 | 135 | 0.0 | 0.0 | 0.00 | 0.01 | 0.00 | 80 | 1034.8 |
| 20260502105611 | 48 | 45 | 0.0 | 0.0 | 0.00 | 0.01 | 0.00 | 86 | 1034.4 |
| 20260502104611 | 47 | 45 | 0.0 | 0.0 | 0.00 | 0.01 | 0.00 | 85 | 1034.2 |
| 20260502103611 | 47 | 45 | 0.0 | 0.0 | 0.00 | 0.01 | 0.00 | 82 | 1033.9 |
| 20260502103511 | 47 | 45 | 0.0 | 0.0 | 0.00 | 0.01 | 0.00 | 83 | 1034.0 |
| 20260502101414 | 48 | 360 | 0.0 | 0.0 | 0.00 | 0.01 | 0.00 | 83 | 1034.1 |
| 20260502100511 | 48 | 360 | 0.0 | 0.0 | 0.00 | 0.01 | 0.00 | 81 | 1033.9 |
| 20260502091112 | 50 | 360 | 0.0 | 0.0 | 0.00 | 0.01 | 0.00 | 80 | 1033.9 |
| 20260502090110 | 50 | 360 | 0.0 | 0.0 | 0.00 | 0.01 | 0.00 | 79 | 1033.9 |
| 20260502071014 | 50 | 315 | 0.0 | 0.0 | 0.00 | 0.01 | 0.00 | 80 | 1034.1 |
| 20260502070111 | 50 | 315 | 0.0 | 0.0 | 0.00 | 0.01 | 0.00 | 79 | 1034.1 |
| 20260502065112 | 50 | 315 | 0.0 | 0.0 | 0.00 | 0.01 | 0.00 | 77 | 1034.1 |
| 20260502064113 | 50 | 315 | 0.0 | 0.0 | 0.00 | 0.01 | 0.00 | 75 | 1034.0 |
| 20260502063112 | 51 | 315 | 0.0 | 0.0 | 0.00 | 0.01 | 0.00 | 74 | 1034.0 |
| 20260502062112 | 51 | 315 | 0.0 | 0.0 | 0.00 | 0.01 | 0.00 | 74 | 1034.1 |
| 20260502061113 | 51 | 315 | 0.0 | 0.0 | 0.00 | 0.01 | 0.00 | 72 | 1034.1 |
| 20260502061013 | 51 | 315 | 0.0 | 0.0 | 0.00 | 0.01 | 0.00 | 73 | 1034.1 |
| 20260502060111 | 52 | 315 | 0.0 | 0.0 | 0.00 | 0.01 | 0.00 | 71 | 1034.1 |
| 20260502060013 | 52 | 315 | 0.0 | 0.0 | 0.00 | 0.01 | 0.00 | 72 | 1034.1 |
| 20260502055012 | 52 | 315 | 0.0 | 0.0 | 0.00 | 0.01 | 0.00 | 72 | 1034.3 |
| 20260502054110 | 52 | 315 | 0.0 | 0.0 | 0.00 | 0.01 | 0.00 | 71 | 1034.5 |
| 20260502053111 | 52 | 315 | 0.0 | 0.0 | 0.00 | 0.01 | 0.00 | 72 | 1034.6 |
| 20260502053012 | 52 | 315 | 0.0 | 0.0 | 0.00 | 0.01 | 0.00 | 72 | 1034.7 |
| 20260502052014 | 52 | 315 | 0.0 | 0.0 | 0.00 | 0.01 | 0.00 | 72 | 1034.6 |
| 20260502051013 | 52 | 315 | 0.0 | 1.0 | 0.00 | 0.01 | 0.00 | 71 | 1034.4 |
| 20260502050012 | 52 | 315 | 0.0 | 0.0 | 0.00 | 0.01 | 0.00 | 72 | 1034.4 |
| 20260502045014 | 52 | 315 | 0.0 | 0.0 | 0.00 | 0.01 | 0.00 | 71 | 1034.4 |
| 20260502044011 | 52 | 315 | 0.0 | 0.0 | 0.00 | 0.01 | 0.00 | 70 | 1034.5 |
| 20260502042012 | 52 | 315 | 0.0 | 0.0 | 0.00 | 0.01 | 0.00 | 70 | 1034.3 |
| 20260502041013 | 52 | 315 | 0.0 | 0.0 | 0.00 | 0.01 | 0.00 | 71 | 1034.1 |
| 20260502035018 | 52 | 315 | 0.0 | 0.0 | 0.00 | 0.01 | 0.01 | 69 | 1034.0 |
| 20260502034919 | 52 | 315 | 0.0 | 0.0 | 0.00 | 0.01 | 0.01 | 69 | 1033.9 |
| 20260502032921 | 52 | 315 | 0.0 | 0.0 | 0.00 | 0.01 | 0.01 | 67 | 1033.9 |
| 20260502032018 | 52 | 315 | 0.0 | 0.0 | 0.00 | 0.01 | 0.01 | 66 | 1034.0 |
| 20260502030919 | 53 | 315 | 0.0 | 0.0 | 0.00 | 0.01 | 0.01 | 64 | 1033.9 |
| 20260502025920 | 53 | 315 | 0.0 | 0.0 | 0.00 | 0.01 | 0.01 | 64 | 1034.2 |
| 20260502025017 | 53 | 315 | 0.0 | 0.0 | 0.00 | 0.01 | 0.01 | 64 | 1034.3 |
| 20260502024019 | 53 | 315 | 0.0 | 0.0 | 0.00 | 0.01 | 0.01 | 65 | 1034.3 |
| 20260502023019 | 52 | 315 | 0.0 | 0.0 | 0.00 | 0.01 | 0.01 | 63 | 1034.3 |
| 20260502022018 | 52 | 315 | 0.0 | 0.0 | 0.00 | 0.01 | 0.01 | 64 | 1034.5 |
| 20260502021019 | 52 | 315 | 0.0 | 0.0 | 0.00 | 0.01 | 0.01 | 64 | 1034.4 |
| 20260502020018 | 51 | 315 | 0.0 | 0.0 | 0.00 | 0.01 | 0.01 | 65 | 1034.2 |
| 20260502015018 | 51 | 315 | 0.0 | 0.0 | 0.00 | 0.01 | 0.01 | 64 | 1034.2 |
| 20260502013019 | 51 | 247 | 0.0 | 0.0 | 0.00 | 0.01 | 0.01 | 62 | 1034.0 |
| 20260502012919 | 51 | 247 | 0.0 | 0.0 | 0.00 | 0.01 | 0.01 | 62 | 1034.1 |
| 20260502012018 | 51 | 247 | 0.0 | 0.0 | 0.00 | 0.01 | 0.01 | 61 | 1034.0 |
| 20260502010918 | 52 | 247 | 0.0 | 0.0 | 0.00 | 0.01 | 0.01 | 59 | 1033.8 |
| 20260502010819 | 52 | 247 | 0.0 | 0.0 | 0.00 | 0.01 | 0.01 | 60 | 1033.8 |
| 20260502004919 | 53 | 247 | 0.0 | 0.0 | 0.00 | 0.01 | 0.01 | 55 | 1033.9 |
| 20260502004819 | 53 | 247 | 0.0 | 0.0 | 0.00 | 0.01 | 0.01 | 55 | 1033.8 |
| 20260502003818 | 54 | 247 | 0.0 | 0.0 | 0.00 | 0.01 | 0.01 | 56 | 1033.6 |
| 20260502001917 | 56 | 247 | 0.0 | 0.0 | 0.00 | 0.01 | 0.01 | 50 | 1033.5 |
| 20260502000917 | 57 | 247 | 0.0 | 0.0 | 0.00 | 0.01 | 0.01 | 47 | 1033.6 |
| 20260501235918 | 58 | 247 | 0.0 | 0.0 | 0.00 | 0.01 | 0.01 | 46 | 1033.4 |
| 20260501234920 | 59 | 247 | 0.0 | 0.0 | 0.00 | 0.01 | 0.01 | 43 | 1033.3 |
| 20260501234017 | 59 | 247 | 0.0 | 0.0 | 0.00 | 0.01 | 0.01 | 42 | 1033.0 |
| 20260501233919 | 59 | 247 | 0.0 | 0.0 | 0.00 | 0.01 | 0.01 | 42 | 1033.0 |
| 20260501233017 | 59 | 289 | 1.0 | 3.0 | 0.00 | 0.01 | 0.01 | 41 | 1033.0 |
| 20260501231020 | 60 | 45 | 0.0 | 0.0 | 0.00 | 0.01 | 0.01 | 40 | 1032.9 |
| 20260501230019 | 60 | 315 | 0.0 | 0.0 | 0.00 | 0.01 | 0.01 | 39 | 1032.8 |
| 20260501225117 | 61 | 315 | 0.0 | 1.0 | 0.00 | 0.01 | 0.01 | 41 | 1032.9 |
| 20260501224117 | 61 | 9 | 0.0 | 2.0 | 0.00 | 0.01 | 0.01 | 41 | 1032.9 |
| 20260501224034 | 61 | 39 | 0.0 | 2.0 | 0.00 | 0.01 | 0.01 | 40 | 1033.0 |
| 20260501223119 | 61 | 225 | 0.0 | 0.0 | 0.00 | 0.01 | 0.01 | 42 | 1033.1 |
| 20260501222118 | 62 | 315 | 0.0 | 0.0 | 0.00 | 0.01 | 0.01 | 40 | 1033.0 |
| 20260501221119 | 62 | 360 | 0.0 | 2.0 | 0.00 | 0.01 | 0.01 | 40 | 1033.0 |
| 20260501220119 | 63 | 180 | 0.0 | 0.0 | 0.00 | 0.01 | 0.01 | 37 | 1033.0 |
| 20260501215218 | 63 | 202 | 0.0 | 0.0 | 0.00 | 0.01 | 0.01 | 36 | 1033.1 |
| 20260501214219 | 63 | 174 | 0.0 | 0.0 | 0.00 | 0.01 | 0.01 | 36 | 1033.0 |
| 20260501213317 | 63 | 180 | 0.0 | 0.0 | 0.00 | 0.01 | 0.01 | 36 | 1033.1 |
| 20260501212320 | 64 | 104 | 0.0 | 2.0 | 0.00 | 0.01 | 0.01 | 35 | 1033.2 |